PBO Station Position Time Series. Reference Frame : NAM14
Format Version,1.1.0
4-character ID,DAM3
Station name,Pacoima_DM3SCIGN
Begin Date, 2003-01-02
End Date, 2019-08-04
Release Date, 2019-10-03
Reference position, 34.3339912313 North Latitude, -118.3974678153 East Longitude, 580.02447 meters elevation,
Date, North (mm), East (mm), Vertical (mm), North Std. Deviation (mm), East Std. Deviation (mm),              Vertical Std. Deviation (mm), Quality,
2003-01-02,0.00, 0.00, 8.15, 6.70, 8.54, 32.52, repro,
2003-01-03,-10.04, 3.06, 25.77, 6.73, 7.82, 32.45, repro,
2003-01-04,-3.22, -3.03, 23.16, 6.33, 7.28, 31.36, repro,
2003-01-05,-7.70, -6.06, 41.62, 7.97, 10.06, 34.99, repro,
2003-01-06,-6.23, -0.26, -0.19, 6.46, 7.47, 31.05, repro,
2003-01-07,-1.20, 1.07, 25.41, 6.34, 8.18, 28.57, repro,
2003-01-08,-5.55, -1.71, 50.49, 6.42, 7.07, 30.32, repro,
2003-01-09,-4.49, -5.57, 44.18, 6.93, 7.46, 33.32, repro,
2003-01-10,0.58, 4.48, 56.89, 7.45, 9.82, 37.53, repro,
2003-01-11,1.48, 2.37, 29.92, 7.22, 8.84, 38.27, repro,
2003-01-12,1.43, 4.25, 44.44, 7.53, 8.80, 35.85, repro,
2003-01-13,-3.06, 6.94, 31.46, 7.25, 8.99, 38.95, repro,
2003-01-14,-0.73, -1.23, 36.86, 6.64, 8.14, 32.79, repro,
2003-01-15,-5.27, -4.05, 56.58, 7.20, 8.02, 33.06, repro,
2003-01-16,-3.91, -8.03, 29.73, 7.70, 9.00, 35.58, repro,
2003-01-17,-0.17, -5.12, 33.74, 6.29, 6.70, 28.17, repro,
2003-01-18,-0.59, -3.62, 55.85, 7.59, 9.56, 42.91, repro,
2003-01-19,-1.91, 5.47, 45.55, 6.55, 8.92, 33.19, repro,
2003-01-20,-6.08, -3.21, 62.76, 6.61, 7.62, 32.63, repro,
2003-01-21,4.65, -1.88, 50.49, 7.59, 9.11, 39.40, repro,
2003-01-22,2.19, -0.57, 79.96, 6.51, 7.83, 32.50, repro,
2003-01-23,-3.86, -1.63, 58.53, 7.12, 7.72, 35.93, repro,
2003-01-24,-2.73, -7.79, 91.66, 6.42, 7.19, 28.92, repro,
2003-01-25,-2.15, 2.06, 30.59, 6.67, 7.44, 30.59, repro,
2003-01-26,-5.44, -2.84, 35.84, 7.38, 8.00, 35.40, repro,
2003-01-27,-5.25, -3.56, 66.14, 7.94, 9.76, 42.58, repro,
2003-01-28,1.60, 9.20, 40.78, 6.91, 9.10, 33.15, repro,
2003-01-29,-6.22, 1.90, 67.12, 6.68, 7.65, 32.55, repro,
2003-01-30,-5.19, 13.08, 6.70, 6.52, 7.55, 31.42, repro,
2003-01-31,-0.50, -1.78, 64.57, 6.23, 6.99, 28.59, repro,
2003-02-01,-7.69, 12.40, 48.58, 6.98, 8.10, 28.82, repro,
2003-02-02,-1.42, 3.88, 91.68, 8.29, 10.69, 41.44, repro,
2003-02-03,-7.40, 7.54, 28.55, 6.94, 7.35, 29.24, repro,
2003-02-04,-3.00, 11.93, 49.07, 8.25, 9.54, 41.11, repro,
2003-02-05,2.64, 17.61, 34.49, 6.82, 7.32, 30.26, repro,
2003-02-06,0.36, 16.02, 27.15, 7.59, 8.59, 32.73, repro,
2003-02-07,-0.02, 4.33, 71.42, 7.40, 8.01, 29.14, repro,
2003-02-08,6.28, 10.18, 19.96, 6.54, 7.45, 26.82, repro,
2003-02-09,3.45, 16.14, 55.33, 8.04, 11.05, 35.23, repro,
2003-02-10,2.21, 29.96, 40.66, 7.38, 8.67, 29.59, repro,
2003-02-11,1.55, 1.36, 22.29, 7.97, 9.68, 34.02, repro,
2003-02-12,10.11, 8.72, 52.80, 8.23, 9.47, 32.80, repro,
2003-02-13,8.00, 15.99, 28.24, 7.00, 8.69, 30.00, repro,
2003-02-14,6.36, 1.44, 58.92, 7.60, 9.37, 34.37, repro,
2003-02-15,11.96, 13.83, 22.32, 7.37, 9.44, 30.38, repro,
2003-02-16,2.35, 14.77, 62.92, 7.09, 8.80, 29.76, repro,
2003-02-17,5.90, 30.54, 55.94, 7.92, 10.14, 32.79, repro,
2003-02-18,4.27, 15.11, 15.01, 9.32, 13.60, 50.23, repro,
2003-02-19,-5.27, -1.59, 106.45, 8.48, 9.73, 41.56, repro,
2003-02-20,-3.98, 8.38, 72.20, 8.19, 10.09, 46.05, repro,
2003-02-21,0.23, 3.43, 47.11, 7.11, 8.14, 29.81, repro,
2003-02-22,2.70, 10.94, 53.85, 9.99, 10.52, 53.56, repro,
2003-02-23,-5.74, 2.79, 85.88, 9.51, 11.29, 53.25, repro,
2003-02-24,-6.48, 2.26, 108.71, 8.27, 9.80, 48.87, repro,
2003-02-25,6.48, 9.09, -15.66, 8.34, 10.14, 38.36, repro,
2003-02-26,6.25, 4.17, 97.68, 7.92, 8.84, 40.71, repro,
2003-02-27,13.28, 8.20, 70.37, 8.05, 9.66, 42.06, repro,
2003-02-28,9.66, -5.82, 71.20, 8.46, 9.33, 34.40, repro,
2003-03-01,-3.62, 8.02, 94.07, 8.46, 9.12, 50.58, repro,
2003-03-02,6.86, 18.87, -4.27, 9.27, 12.07, 48.47, repro,
2003-03-03,4.80, -2.62, 70.48, 7.55, 8.04, 31.58, repro,
2003-03-04,-2.95, 20.12, 75.81, 8.97, 11.13, 47.00, repro,
2003-03-05,12.76, -13.80, 82.36, 10.97, 14.24, 57.26, repro,
2003-03-06,-2.30, 0.16, 79.46, 10.51, 13.98, 63.02, repro,
2003-03-07,6.82, -2.13, 64.24, 11.34, 13.06, 59.05, repro,
2003-03-08,-2.82, -3.92, 87.07, 9.43, 10.82, 53.57, repro,
2003-03-09,-11.35, 18.13, 109.86, 8.90, 10.73, 48.35, repro,
2003-03-10,1.36, 2.20, 87.46, 8.46, 8.40, 36.55, repro,
2003-03-11,11.73, 7.76, 75.36, 10.07, 10.97, 40.88, repro,
2003-03-12,-1.89, 19.22, 23.31, 8.72, 8.43, 36.49, repro,
2003-03-13,-7.74, 12.44, 72.55, 8.80, 10.47, 37.24, repro,
2003-03-14,-7.29, 89.81, 90.19, 9.86, 12.23, 58.12, repro,
2003-03-16,-9.48, -0.03, 132.09, 9.37, 9.07, 46.43, repro,
2003-03-17,9.23, -0.76, 50.72, 8.64, 8.97, 36.98, repro,
2003-03-18,-0.26, -3.38, 49.89, 8.03, 8.45, 35.42, repro,
2003-03-19,2.61, 5.48, 59.42, 10.17, 17.90, 45.40, repro,
2003-03-20,5.48, 5.98, 48.67, 10.56, 12.57, 56.52, repro,
2003-03-21,-0.59, -6.05, 74.22, 9.50, 9.81, 53.74, repro,
2003-03-22,-25.33, 17.13, 150.20, 9.89, 12.36, 57.11, repro,
2003-03-23,1.21, -4.85, 59.04, 9.03, 9.83, 51.28, repro,
2003-03-24,-11.74, 20.81, 104.80, 9.97, 10.10, 57.07, repro,
2003-03-25,55.47, -33.85, -111.08, 10.60, 11.22, 65.16, repro,
2003-03-26,-2.80, -0.86, 70.49, 9.85, 9.30, 54.18, repro,
2003-03-27,-15.67, 23.60, -10.76, 10.57, 9.25, 58.99, repro,
2003-03-28,22.56, -60.55, -28.60, 10.96, 20.64, 74.00, repro,
2003-03-29,-7.26, 0.11, 76.03, 9.94, 8.91, 57.10, repro,
2003-03-30,-21.30, 31.51, 163.26, 9.65, 9.45, 60.84, repro,
2003-03-31,-2.33, -12.67, 70.20, 9.85, 9.25, 54.37, repro,
2003-04-01,4.05, 74.83, -30.60, 11.75, 12.88, 69.84, repro,
2003-04-02,-0.74, -13.10, 155.96, 9.48, 9.85, 54.48, repro,
2003-04-03,4.93, 6.64, 62.03, 9.91, 8.91, 55.70, repro,
2003-04-04,8.03, 6.75, 57.09, 11.16, 12.36, 67.61, repro,
2003-04-05,6.68, -3.17, 67.76, 10.02, 8.97, 53.69, repro,
2003-04-06,9.71, 6.84, 26.30, 10.12, 9.08, 56.81, repro,
2003-04-07,1.05, -6.84, 117.92, 9.89, 9.65, 51.83, repro,
2003-04-08,-14.06, 2.45, 76.66, 9.94, 8.77, 54.26, repro,
2003-04-09,30.39, 5.05, -6.12, 11.65, 11.75, 67.02, repro,
2003-04-10,-2.69, -52.02, 117.27, 11.40, 9.75, 62.25, repro,
2003-04-11,8.81, 9.74, 36.05, 10.62, 9.71, 57.37, repro,
2003-04-15,15.28, 17.06, 13.28, 8.90, 9.06, 43.94, repro,
2003-04-16,11.85, 4.10, 40.39, 9.87, 9.99, 45.79, repro,
2003-04-17,4.96, 5.36, 35.63, 8.96, 8.92, 40.47, repro,
2003-04-18,0.33, 13.80, 10.69, 8.88, 7.99, 44.82, repro,
2003-04-19,4.59, -9.56, 0.99, 8.53, 7.78, 38.36, repro,
2003-04-20,1.71, -1.49, 55.20, 9.09, 9.80, 47.00, repro,
2003-04-21,4.30, 14.64, -22.87, 9.34, 8.42, 41.17, repro,
2003-04-22,7.32, -1.58, 58.54, 8.66, 8.79, 40.24, repro,
2003-04-23,6.58, 4.47, 4.85, 9.18, 8.43, 42.44, repro,
2003-04-24,10.36, -3.31, 60.76, 8.40, 8.71, 41.21, repro,
2003-04-25,0.37, 11.82, -3.63, 8.37, 8.71, 44.88, repro,
2003-04-26,12.30, 10.16, 28.67, 8.70, 8.71, 43.77, repro,
2003-04-27,-3.41, 5.25, 53.05, 7.88, 7.75, 38.80, repro,
2003-04-28,6.98, -1.18, 61.74, 9.00, 9.46, 49.13, repro,
2003-04-29,8.95, 7.17, 7.40, 7.98, 7.79, 40.24, repro,
2003-04-30,-0.33, 9.80, 3.16, 8.26, 8.50, 45.71, repro,
2003-05-01,-0.65, 8.55, -14.51, 8.20, 8.07, 39.74, repro,
2003-05-02,-1.55, -6.47, -8.51, 10.46, 11.12, 47.59, repro,
2003-05-03,5.82, 28.35, -53.34, 9.02, 8.57, 43.30, repro,
2003-05-04,8.93, 0.98, 47.20, 9.61, 9.41, 42.81, repro,
2003-05-05,9.26, 5.87, -34.10, 8.26, 8.59, 44.69, repro,
2003-05-06,3.42, 5.17, -37.77, 10.12, 8.52, 44.29, repro,
2003-05-07,-0.41, 6.05, 14.39, 8.37, 8.56, 46.34, repro,
2003-05-08,6.14, 14.56, -11.86, 9.28, 9.91, 60.38, repro,
2003-05-09,4.49, -0.28, 21.84, 9.07, 10.10, 62.96, repro,
2003-05-10,6.87, 14.82, -31.27, 7.85, 7.94, 42.65, repro,
2003-05-11,-3.13, 9.04, -16.15, 9.70, 7.56, 38.71, repro,
2003-05-12,6.50, 4.29, 23.17, 12.89, 16.27, 104.39, repro,
2003-05-13,0.63, 11.07, -12.65, 12.97, 13.03, 87.65, repro,
2003-05-14,-3.88, 0.82, 47.29, 8.44, 7.56, 40.34, repro,
2003-05-15,-0.07, 10.43, -19.42, 8.47, 7.71, 39.93, repro,
2003-05-16,1.69, 2.58, 1.18, 8.10, 6.81, 33.76, repro,
2003-05-17,1.62, -3.70, 8.51, 7.52, 7.50, 34.71, repro,
2003-05-18,5.78, 10.05, -24.52, 9.03, 7.29, 40.08, repro,
2003-05-19,6.27, -3.77, 8.15, 7.29, 6.51, 31.18, repro,
2003-05-20,1.14, -4.82, 3.80, 7.70, 7.02, 32.96, repro,
2003-05-21,-0.29, -1.66, 32.93, 7.80, 6.77, 34.14, repro,
2003-05-22,4.72, 0.65, -8.98, 9.17, 7.50, 41.80, repro,
2003-05-23,6.63, 5.81, -33.38, 9.05, 7.16, 40.25, repro,
2003-05-24,1.67, 8.00, -19.40, 8.26, 6.69, 32.82, repro,
2003-05-25,8.36, 7.63, -13.98, 8.53, 6.77, 37.63, repro,
2003-05-26,3.08, 2.99, 32.92, 7.40, 5.99, 30.06, repro,
2003-05-27,-2.20, 3.91, -13.29, 8.98, 7.81, 42.43, repro,
2003-05-28,5.66, 0.15, -1.88, 8.64, 7.53, 38.77, repro,
2003-05-29,-3.95, 15.04, -13.48, 8.50, 7.93, 40.97, repro,
2003-05-30,1.38, -1.59, 6.69, 8.34, 7.08, 36.49, repro,
2003-05-31,0.07, 4.11, 5.22, 9.86, 8.75, 52.41, repro,
2003-06-01,3.83, 6.06, -36.21, 9.89, 9.90, 56.28, repro,
2003-06-02,0.56, -1.71, 16.84, 7.32, 6.15, 29.77, repro,
2003-06-03,-2.46, 5.24, 11.41, 7.51, 6.28, 29.72, repro,
2003-06-04,4.70, 8.08, -36.87, 8.62, 7.58, 43.42, repro,
2003-06-05,-2.71, 4.48, 13.31, 8.18, 6.63, 33.84, repro,
2003-06-06,0.84, 5.19, 12.68, 7.28, 6.57, 31.95, repro,
2003-06-07,1.67, 0.99, 14.55, 7.03, 6.48, 30.29, repro,
2003-06-08,-4.78, -3.44, 48.04, 7.42, 6.80, 31.90, repro,
2003-06-09,-3.13, -0.04, 0.65, 8.16, 8.20, 36.43, repro,
2003-06-10,1.92, 7.58, 6.47, 6.59, 6.24, 29.39, repro,
2003-06-11,8.05, 9.01, -5.05, 7.00, 6.58, 31.03, repro,
2003-06-12,-4.02, -1.08, 35.64, 6.83, 6.34, 29.74, repro,
2003-06-13,-4.89, 1.15, 14.42, 6.49, 6.36, 28.07, repro,
2003-06-14,-3.99, -5.98, -5.46, 8.23, 8.25, 47.11, repro,
2003-06-15,-5.61, 5.19, -14.43, 8.72, 8.86, 51.72, repro,
2003-06-16,-1.02, -2.97, -25.76, 7.63, 7.82, 35.65, repro,
2003-06-17,6.16, -3.38, 0.18, 9.15, 9.11, 51.40, repro,
2003-06-18,1.06, 7.05, -21.84, 7.24, 7.85, 30.68, repro,
2003-06-19,-6.37, -19.61, 130.51, 11.50, 15.04, 84.83, repro,
2003-06-20,7.86, 68.03, -115.37, 8.37, 7.31, 31.40, repro,
2003-06-21,0.15, 1.90, 18.65, 7.18, 7.17, 33.20, repro,
2003-06-22,2.60, 7.20, 24.18, 6.55, 6.23, 27.82, repro,
2003-06-23,4.98, 9.90, -19.65, 7.20, 7.12, 30.26, repro,
2003-06-24,1.79, 0.48, -0.18, 8.92, 8.94, 36.09, repro,
2003-06-25,-11.49, 2.84, 27.17, 9.44, 9.31, 57.07, repro,
2003-06-26,-8.20, -3.88, 14.62, 7.75, 8.21, 34.95, repro,
2003-06-27,-8.82, 3.23, -0.98, 7.27, 6.71, 30.38, repro,
2003-06-28,-8.18, -3.63, 19.81, 8.54, 9.30, 53.14, repro,
2003-06-29,1.34, 1.07, -9.07, 7.12, 6.79, 31.21, repro,
2003-06-30,-6.60, 4.67, -46.39, 8.08, 7.17, 32.19, repro,
2003-07-01,-8.09, -18.31, 59.25, 7.38, 7.90, 34.77, repro,
2003-07-02,-3.66, -5.31, 23.36, 6.56, 6.51, 28.01, repro,
2003-07-03,-10.70, -5.57, -10.96, 6.87, 6.98, 31.94, repro,
2003-07-04,-5.15, -13.58, 11.21, 6.80, 6.53, 30.88, repro,
2003-07-05,-7.30, -15.19, -1.10, 8.02, 8.71, 45.91, repro,
2003-07-06,-11.55, -16.72, 44.95, 8.38, 9.27, 50.23, repro,
2003-07-07,-4.63, -18.66, 63.52, 8.32, 7.99, 45.46, repro,
2003-07-08,-5.16, -12.06, 23.59, 6.86, 6.95, 32.12, repro,
2003-07-09,-5.05, -0.76, -14.72, 7.21, 7.28, 32.78, repro,
2003-07-10,-2.44, -12.75, 22.78, 7.85, 8.32, 40.37, repro,
2003-07-11,-0.07, -6.17, 1.89, 6.88, 7.06, 31.49, repro,
2003-07-12,1.54, -6.59, 14.46, 7.42, 7.13, 36.38, repro,
2003-07-13,1.48, -18.74, -6.70, 6.74, 7.09, 32.07, repro,
2003-07-14,1.83, -3.95, 1.88, 6.46, 6.52, 28.99, repro,
2003-07-15,8.85, -25.35, -0.28, 6.75, 6.76, 31.16, repro,
2003-07-16,-0.58, -8.21, 3.93, 6.76, 6.59, 30.57, repro,
2003-07-17,1.40, -2.01, -27.63, 7.43, 6.91, 36.76, repro,
2003-07-18,-5.71, -3.83, 19.75, 6.99, 7.43, 30.61, repro,
2003-07-19,1.88, -11.47, 10.57, 7.21, 7.47, 29.56, repro,
2003-07-20,0.21, -7.75, 30.55, 7.11, 7.37, 31.03, repro,
2003-07-21,0.16, 0.67, -1.96, 6.01, 5.64, 24.26, repro,
2003-07-22,-5.33, 0.43, 0.00, 2.68, 2.68, 11.37, repro,
2003-07-23,-3.33, -0.34, 15.43, 2.50, 2.43, 11.36, repro,
2003-07-24,-1.65, 0.37, 23.51, 2.47, 2.38, 10.89, repro,
2003-07-25,-3.30, 1.31, 20.76, 2.45, 2.41, 10.98, repro,
2003-07-26,-1.93, 2.27, 1.86, 2.53, 2.47, 11.57, repro,
2003-07-27,-2.89, -1.09, 12.44, 2.51, 2.45, 11.37, repro,
2003-07-28,-6.09, -0.23, 9.95, 2.80, 2.76, 12.84, repro,
2003-07-29,-3.17, -1.22, 26.23, 2.48, 2.47, 10.69, repro,
2003-07-30,-6.34, 2.50, 12.20, 2.48, 2.46, 10.83, repro,
2003-07-31,-1.94, -0.25, 7.98, 2.51, 2.51, 11.43, repro,
2003-08-01,-3.85, -2.23, 30.64, 2.55, 2.68, 12.28, repro,
2003-08-02,-3.41, 2.41, 13.21, 2.45, 2.47, 11.38, repro,
2003-08-03,-4.12, 3.53, 22.53, 2.44, 2.43, 11.07, repro,
2003-08-04,-4.44, 2.26, 12.01, 2.45, 2.47, 11.48, repro,
2003-08-05,-0.39, 3.75, 22.91, 2.49, 2.56, 11.55, repro,
2003-08-06,-3.17, 3.85, 17.20, 2.48, 2.45, 11.08, repro,
2003-08-07,-2.60, 0.64, 17.91, 2.46, 2.47, 11.08, repro,
2003-08-08,-2.03, 4.06, 27.28, 2.52, 2.53, 11.11, repro,
2003-08-09,-3.75, 2.50, 4.16, 2.40, 2.41, 10.91, repro,
2003-08-10,-5.71, -1.83, 35.99, 2.41, 2.48, 11.39, repro,
2003-08-11,-4.87, 2.08, 24.21, 2.36, 2.41, 10.64, repro,
2003-08-12,-4.20, 0.76, 23.83, 2.46, 2.52, 11.57, repro,
2003-08-13,-3.45, 0.28, 12.94, 2.40, 2.40, 10.73, repro,
2003-08-14,-3.17, -1.83, 18.47, 2.41, 2.42, 10.85, repro,
2003-08-15,-4.92, 0.01, 24.24, 2.42, 2.44, 11.10, repro,
2003-08-16,-0.62, -2.12, 30.27, 2.59, 2.73, 13.02, repro,
2003-08-17,-2.53, -1.96, 33.48, 2.44, 2.57, 11.83, repro,
2003-08-18,-3.36, -1.66, 17.08, 2.40, 2.41, 11.10, repro,
2003-08-19,-1.35, 3.80, 17.23, 2.43, 2.43, 11.41, repro,
2003-08-20,-0.67, 0.66, 15.74, 2.42, 2.49, 11.26, repro,
2003-08-21,-4.31, 0.39, 25.43, 2.46, 2.48, 11.62, repro,
2003-08-22,-0.50, 3.03, 25.15, 2.46, 2.51, 11.99, repro,
2003-08-23,-0.22, 2.57, 20.57, 2.73, 2.87, 13.22, repro,
2003-08-24,-2.90, -1.41, 19.61, 2.38, 2.38, 10.83, repro,
2003-08-25,-3.86, -2.37, 22.06, 2.47, 2.52, 11.96, repro,
2003-08-26,-1.58, 0.08, 11.20, 2.39, 2.38, 11.11, repro,
2003-08-27,-4.37, 1.80, 7.85, 2.41, 2.39, 11.04, repro,
2003-08-28,-6.09, -1.83, 24.12, 2.57, 2.73, 13.14, repro,
2003-08-29,1.77, -1.77, 21.88, 2.41, 2.47, 11.27, repro,
2003-08-30,-1.68, -4.85, 45.12, 2.48, 2.58, 12.22, repro,
2003-08-31,-1.59, -3.16, 26.23, 2.53, 2.66, 12.69, repro,
2003-09-01,-3.26, -2.37, 27.86, 2.43, 2.43, 11.27, repro,
2003-09-02,-2.88, -1.19, 18.95, 2.45, 2.46, 11.64, repro,
2003-09-03,-0.24, -1.32, 17.22, 2.45, 2.58, 11.65, repro,
2003-09-04,-2.99, -1.04, 29.38, 2.46, 2.44, 11.20, repro,
2003-09-05,-0.60, -3.92, 31.92, 2.41, 2.40, 11.24, repro,
2003-09-06,-0.52, -4.59, 23.87, 2.46, 2.53, 11.81, repro,
2003-09-07,-1.51, -4.96, 24.35, 2.44, 2.52, 11.34, repro,
2003-09-08,-1.58, -4.47, 36.66, 2.59, 2.79, 12.92, repro,
2003-09-09,0.16, -0.52, 35.32, 2.50, 2.52, 11.90, repro,
2003-09-10,1.86, -1.93, 31.57, 2.44, 2.56, 11.87, repro,
2003-09-11,-0.49, -2.24, 33.47, 2.47, 2.51, 11.89, repro,
2003-09-12,0.05, -5.06, 38.39, 2.47, 2.52, 11.31, repro,
2003-09-13,-0.52, -3.38, 35.93, 2.49, 2.53, 11.19, repro,
2003-09-14,-1.88, -0.16, 26.21, 2.51, 2.53, 11.65, repro,
2003-09-15,-2.67, -0.27, 23.50, 2.56, 2.64, 12.04, repro,
2003-09-16,-0.09, -0.75, 25.81, 2.48, 2.53, 12.00, repro,
2003-09-17,0.09, 0.97, 20.68, 2.59, 2.62, 12.14, repro,
2003-09-18,-0.65, -5.86, 49.56, 2.49, 2.59, 12.24, repro,
2003-09-19,-2.39, -2.76, 46.68, 2.62, 2.75, 13.08, repro,
2003-09-20,-1.17, -2.67, 29.87, 2.48, 2.53, 11.76, repro,
2003-09-21,-4.97, -2.92, 20.64, 2.60, 2.69, 12.57, repro,
2003-09-22,-6.37, -5.77, 34.56, 2.54, 2.59, 12.21, repro,
2003-09-23,-2.76, -2.01, 25.54, 2.64, 2.63, 12.38, repro,
2003-09-24,-3.44, 2.19, 24.87, 2.58, 2.61, 12.13, repro,
2003-09-25,0.14, 0.90, 6.35, 2.59, 2.55, 12.02, repro,
2003-09-26,-4.92, -1.03, 27.34, 2.70, 2.78, 12.99, repro,
2003-09-27,-0.63, 3.99, -3.72, 2.71, 2.86, 13.58, repro,
2003-09-28,-0.45, 0.42, 11.60, 2.66, 2.69, 11.94, repro,
2003-09-29,-0.85, 0.91, 33.99, 2.61, 2.59, 12.03, repro,
2003-09-30,0.26, 1.71, 6.32, 2.67, 2.64, 12.30, repro,
2003-10-01,0.72, -0.15, 17.62, 2.70, 2.73, 12.61, repro,
2003-10-02,2.81, 3.26, 17.46, 2.58, 2.54, 11.73, repro,
2003-10-03,0.70, 2.09, 24.38, 2.53, 2.52, 11.55, repro,
2003-10-04,-0.00, 5.26, 18.01, 2.72, 2.76, 12.65, repro,
2003-10-05,-1.34, 3.61, 19.56, 2.55, 2.59, 11.31, repro,
2003-10-06,-0.46, -0.55, 11.52, 2.63, 2.59, 12.00, repro,
2003-10-07,-2.25, 2.50, 17.82, 2.82, 2.87, 12.46, repro,
2003-10-08,-2.65, 3.45, 15.62, 2.99, 3.01, 12.85, repro,
2003-10-09,-5.56, 0.73, 19.15, 2.60, 2.59, 11.80, repro,
2003-10-10,-1.18, 5.17, 22.51, 2.58, 2.48, 11.60, repro,
2003-10-11,-0.68, 3.57, 29.15, 2.64, 2.59, 12.26, repro,
2003-10-12,-4.35, 1.01, 31.83, 2.66, 2.75, 12.39, repro,
2003-10-13,0.05, -5.98, 39.61, 2.72, 2.91, 13.59, repro,
2003-10-14,-2.66, -0.05, 32.55, 2.49, 2.57, 11.43, repro,
2003-10-15,-2.27, -1.25, 38.25, 2.57, 2.62, 12.10, repro,
2003-10-16,1.27, 3.85, 8.89, 2.44, 2.45, 11.03, repro,
2003-10-17,-0.77, 0.83, 14.91, 2.51, 2.64, 11.49, repro,
2003-10-18,1.24, -5.63, 31.37, 2.69, 2.96, 13.57, repro,
2003-10-19,-3.17, 3.59, 23.43, 2.57, 2.76, 11.57, repro,
2003-10-20,-2.18, -2.88, 33.59, 2.61, 2.65, 12.06, repro,
2003-10-21,-4.77, 1.35, 14.87, 2.52, 2.61, 12.05, repro,
2003-10-22,-4.70, -1.08, 27.49, 2.69, 2.71, 12.75, repro,
2003-10-23,-1.44, -4.51, 40.90, 2.62, 2.68, 12.60, repro,
2003-10-24,-4.28, -1.66, 32.84, 2.53, 2.57, 11.67, repro,
2003-10-25,-7.67, 1.27, 31.27, 2.53, 2.73, 12.05, repro,
2003-10-26,-7.73, 0.16, -4.28, 2.58, 2.73, 12.69, repro,
2003-10-27,-5.22, -2.33, 37.25, 2.47, 2.54, 12.21, repro,
2003-10-28,-3.40, -0.81, 24.70, 2.54, 2.62, 12.22, repro,
2003-10-29,0.27, 0.68, 35.76, 2.72, 3.01, 14.43, repro,
2003-10-30,-0.82, 7.72, 24.05, 2.87, 3.06, 13.57, repro,
2003-10-31,12.65, 13.30, 20.51, 2.53, 2.57, 11.17, repro,
2003-11-01,11.88, 12.43, 5.24, 2.47, 2.53, 11.28, repro,
2003-11-02,20.28, 14.07, 18.76, 2.47, 2.56, 10.84, repro,
2003-11-03,7.79, 14.73, 27.62, 2.45, 2.47, 10.94, repro,
2003-11-04,11.71, 17.32, 12.33, 2.57, 2.86, 12.08, repro,
2003-11-05,8.52, 10.90, 14.02, 2.52, 2.67, 11.89, repro,
2003-11-06,0.27, 4.31, 16.86, 2.51, 2.64, 11.43, repro,
2003-11-07,1.57, 7.86, 14.65, 2.48, 2.55, 11.80, repro,
2003-11-08,-0.44, 3.40, 34.61, 2.64, 2.74, 13.42, repro,
2003-11-09,0.14, 7.23, 18.78, 2.54, 2.63, 12.19, repro,
2003-11-10,0.38, 8.74, 16.66, 2.59, 2.73, 12.24, repro,
2003-11-11,1.09, 4.05, 28.77, 2.53, 2.54, 11.65, repro,
2003-11-12,1.51, 5.91, 10.53, 2.54, 2.70, 11.54, repro,
2003-11-13,9.03, 11.58, 2.39, 2.55, 2.54, 11.47, repro,
2003-11-14,3.90, 6.72, 18.25, 2.93, 3.12, 14.12, repro,
2003-11-15,7.34, 14.04, 11.14, 2.58, 2.70, 11.52, repro,
2003-11-16,12.51, 8.25, 9.05, 2.49, 2.61, 11.11, repro,
2003-11-17,4.54, 14.79, 12.12, 2.59, 2.82, 11.70, repro,
2003-11-18,4.43, 10.77, 0.26, 2.56, 2.68, 11.36, repro,
2003-11-19,-1.65, 0.29, 29.01, 2.66, 2.83, 13.19, repro,
2003-11-20,-1.65, 1.73, 31.85, 2.58, 2.71, 13.14, repro,
2003-11-21,11.94, 11.16, 31.55, 2.76, 3.08, 12.01, repro,
2003-11-22,9.19, 13.19, 10.77, 2.52, 2.59, 11.43, repro,
2003-11-23,5.06, 9.95, 11.15, 2.53, 2.59, 11.98, repro,
2003-11-24,1.79, 4.04, 36.77, 2.58, 2.69, 12.93, repro,
2003-11-25,8.44, 4.58, 25.83, 2.61, 2.74, 12.01, repro,
2003-11-26,17.65, 12.93, 21.03, 2.42, 2.49, 10.68, repro,
2003-11-27,0.75, 3.15, 24.39, 2.73, 3.04, 13.58, repro,
2003-11-28,-2.03, 7.53, 22.44, 2.72, 2.83, 12.89, repro,
2003-11-29,-3.18, 0.59, 49.81, 2.79, 3.10, 14.83, repro,
2003-11-30,-0.22, 4.83, 30.15, 2.63, 2.88, 13.97, repro,
2003-12-01,1.40, 6.61, 34.68, 2.88, 3.16, 14.26, repro,
2003-12-02,2.56, 5.88, 2.59, 2.65, 2.77, 12.85, repro,
2003-12-03,-4.40, 4.73, 21.61, 2.53, 2.57, 11.64, repro,
2003-12-04,-1.30, 3.85, 22.18, 2.60, 2.79, 12.52, repro,
2003-12-05,-1.35, 2.01, 24.19, 2.60, 2.80, 12.61, repro,
2003-12-06,0.92, 7.81, 14.70, 2.50, 2.61, 11.79, repro,
2003-12-07,0.89, 7.66, 18.25, 2.60, 2.69, 11.80, repro,
2003-12-08,4.41, 6.42, 12.16, 2.56, 2.58, 11.77, repro,
2003-12-09,5.96, 6.06, 15.79, 2.71, 2.83, 12.18, repro,
2003-12-10,12.14, 10.24, 28.31, 2.41, 2.39, 10.64, repro,
2003-12-11,12.43, 11.49, 16.83, 2.60, 2.65, 11.42, repro,
2003-12-12,12.21, 5.72, 13.82, 2.38, 2.42, 10.96, repro,
2003-12-13,16.00, 10.46, 24.57, 2.39, 2.45, 10.83, repro,
2003-12-14,16.70, 12.02, 18.03, 2.36, 2.34, 10.35, repro,
2003-12-15,17.75, 6.43, 15.87, 2.42, 2.42, 10.88, repro,
2003-12-16,4.56, 6.62, 3.81, 2.44, 2.45, 11.39, repro,
2003-12-17,2.50, 7.80, 17.12, 2.51, 2.60, 11.72, repro,
2003-12-18,-1.86, 2.27, 35.42, 2.43, 2.56, 11.96, repro,
2003-12-19,-1.54, 2.12, 26.77, 2.48, 2.58, 12.32, repro,
2003-12-20,-0.08, 4.64, 35.04, 2.66, 2.67, 12.74, repro,
2003-12-21,3.76, 6.26, 25.08, 2.68, 2.69, 12.33, repro,
2003-12-22,3.06, 5.52, 28.10, 2.55, 2.68, 13.07, repro,
2003-12-23,2.11, 7.04, 24.53, 2.52, 2.65, 12.14, repro,
2003-12-24,7.21, 9.71, 20.26, 2.58, 2.69, 12.32, repro,
2003-12-25,7.05, 10.97, 16.45, 2.46, 2.49, 11.74, repro,
2003-12-26,20.09, 7.52, 22.94, 2.49, 2.48, 11.10, repro,
2003-12-27,16.94, 8.94, 10.50, 2.46, 2.51, 10.85, repro,
2003-12-28,19.60, 8.91, 26.31, 2.45, 2.48, 11.08, repro,
2003-12-29,18.38, 11.46, 19.14, 2.41, 2.46, 10.98, repro,
2003-12-30,4.96, 10.55, 24.42, 2.48, 2.50, 11.76, repro,
2003-12-31,6.04, 9.67, 18.54, 2.50, 2.43, 11.46, repro,
2004-01-01,15.53, 8.39, 23.67, 2.45, 2.45, 11.07, repro,
2004-01-02,10.16, 7.60, 8.26, 2.65, 2.71, 13.20, repro,
2004-01-03,17.91, 8.87, 19.91, 2.56, 2.56, 11.14, repro,
2004-01-04,14.03, 11.22, 20.33, 2.52, 2.62, 11.84, repro,
2004-01-05,6.63, 6.86, 17.18, 2.51, 2.59, 11.98, repro,
2004-01-06,4.35, 4.74, 25.48, 2.54, 2.60, 12.33, repro,
2004-01-07,2.85, 6.17, 13.14, 2.50, 2.53, 11.27, repro,
2004-01-08,6.94, 7.02, 17.21, 2.59, 2.70, 11.86, repro,
2004-01-09,-0.61, 2.95, 22.35, 2.42, 2.45, 10.76, repro,
2004-01-10,-0.92, 1.01, 29.19, 2.50, 2.61, 11.86, repro,
2004-01-11,-2.45, 2.16, 14.03, 2.58, 2.67, 12.39, repro,
2004-01-12,0.40, 4.30, 7.78, 2.42, 2.49, 11.27, repro,
2004-01-13,0.23, 8.67, 13.24, 2.54, 2.56, 11.42, repro,
2004-01-14,1.55, 1.03, 18.28, 2.73, 2.87, 13.59, repro,
2004-01-15,-2.50, -0.27, 24.47, 2.54, 2.72, 12.01, repro,
2004-01-16,1.15, 5.18, 16.16, 2.72, 2.73, 13.27, repro,
2004-01-17,2.47, 7.60, 27.12, 2.66, 2.88, 13.82, repro,
2004-01-18,6.10, 10.67, 22.14, 2.56, 2.63, 11.83, repro,
2004-01-19,1.04, 8.73, 36.33, 2.60, 2.71, 13.08, repro,
2004-01-20,12.73, 12.74, 5.83, 2.59, 2.61, 11.93, repro,
2004-01-21,1.25, 11.06, 41.99, 2.75, 2.93, 13.53, repro,
2004-01-22,6.10, 12.73, 18.67, 2.62, 2.76, 12.21, repro,
2004-01-23,-0.37, 8.23, 9.04, 2.53, 2.71, 11.70, repro,
2004-01-24,3.78, 15.49, 9.50, 2.44, 2.59, 11.62, repro,
2004-01-25,6.53, 8.03, 17.31, 2.51, 2.77, 11.49, repro,
2004-01-26,5.37, 12.93, 35.13, 2.68, 2.77, 11.96, repro,
2004-01-27,6.97, 6.46, 18.27, 2.49, 2.65, 11.08, repro,
2004-01-28,10.80, 1.81, 28.57, 2.69, 2.93, 13.16, repro,
2004-01-29,1.16, 10.63, 29.74, 2.63, 2.78, 12.73, repro,
2004-01-30,0.34, 10.33, 36.00, 2.63, 2.77, 12.45, repro,
2004-01-31,7.18, 3.26, 39.70, 2.50, 2.56, 11.76, repro,
2004-02-01,4.09, 11.43, 30.62, 2.43, 2.49, 10.85, repro,
2004-02-02,8.08, 9.50, 14.44, 2.43, 2.48, 11.79, repro,
2004-02-03,8.77, 10.21, 30.63, 2.48, 2.59, 11.82, repro,
2004-02-04,8.45, 8.26, 32.71, 2.52, 2.65, 11.77, repro,
2004-02-05,3.91, 8.08, 21.96, 2.49, 2.64, 12.19, repro,
2004-02-06,1.49, 8.10, 31.75, 2.49, 2.54, 11.98, repro,
2004-02-07,3.81, 7.47, 30.73, 2.47, 2.59, 11.92, repro,
2004-02-08,3.24, 5.15, 20.32, 2.50, 2.54, 12.13, repro,
2004-02-09,1.37, 5.33, 25.96, 2.54, 2.61, 12.78, repro,
2004-02-10,0.48, 7.01, 24.89, 2.53, 2.64, 12.05, repro,
2004-02-11,-1.06, 7.49, 28.68, 2.56, 2.69, 12.82, repro,
2004-02-12,2.00, 5.48, 32.94, 2.56, 2.64, 12.19, repro,
2004-02-13,2.76, 6.65, 42.19, 2.55, 2.63, 12.64, repro,
2004-02-14,2.26, 6.10, 41.49, 2.50, 2.56, 11.68, repro,
2004-02-15,4.64, 6.03, 29.03, 2.57, 2.61, 12.33, repro,
2004-02-16,1.00, 6.78, 38.92, 2.65, 2.68, 12.83, repro,
2004-02-17,1.44, 7.43, 17.88, 2.52, 2.62, 12.44, repro,
2004-02-18,5.07, 7.01, 19.01, 2.67, 2.78, 13.35, repro,
2004-02-19,5.86, 4.62, 35.19, 2.61, 2.70, 13.06, repro,
2004-02-20,6.35, 5.99, 36.64, 2.48, 2.56, 11.86, repro,